| time (UTC) | temp C | wind direction | speed KPH | gust KPH | rain 1hr cm | rain 24hr cm | rain mn cm | humidity % | barometer mb |
| 20260505200022 | 7 | 0.0 | 0.0 | 0.00 | 0.00 | 0.00 | 84 | 1016.6 | |
| 20260505194524 | 8 | 0.0 | 0.0 | 0.00 | 0.00 | 0.00 | 82 | 1016.7 | |
| 20260505193026 | 8 | 0.0 | 0.0 | 0.00 | 0.00 | 0.00 | 80 | 1016.5 | |
| 20260505191527 | 9 | 0.0 | 0.0 | 0.00 | 0.00 | 0.00 | 79 | 1016.4 | |
| 20260505190019 | 10 | 0.0 | 0.0 | 0.00 | 0.00 | 0.00 | 75 | 1016.4 | |
| 20260505184503 | 10 | 0.0 | 0.0 | 0.00 | 0.00 | 0.00 | 74 | 1016.4 | |
| 20260505183004 | 10 | 0.0 | 0.0 | 0.00 | 0.00 | 0.00 | 75 | 1016.4 | |
| 20260505181504 | 10 | 0.0 | 0.0 | 0.00 | 0.00 | 0.00 | 73 | 1016.4 | |
| 20260505180004 | 10 | 0.0 | 0.0 | 0.00 | 0.00 | 0.00 | 73 | 1016.3 | |
| 20260505174507 | 10 | 0.0 | 0.0 | 0.00 | 0.00 | 0.00 | 73 | 1016.4 | |
| 20260505173003 | 10 | 0.0 | 0.0 | 0.00 | 0.00 | 0.00 | 73 | 1016.4 | |
| 20260505171506 | 10 | 0.0 | 0.0 | 0.00 | 0.00 | 0.00 | 72 | 1016.6 | |
| 20260505170007 | 10 | 0.0 | 0.0 | 0.00 | 0.00 | 0.00 | 75 | 1016.5 | |
| 20260505164507 | 10 | 0.0 | 0.0 | 0.00 | 0.00 | 0.00 | 74 | 1016.6 | |
| 20260505163004 | 10 | 0.0 | 0.0 | 0.00 | 0.00 | 0.00 | 75 | 1016.6 | |
| 20260505161504 | 10 | 0.0 | 0.0 | 0.00 | 0.00 | 0.00 | 78 | 1016.8 | |
| 20260505153021 | 10 | 0.0 | 0.0 | 0.00 | 0.00 | 0.00 | 76 | 1016.9 | |
| 20260505151532 | 10 | 0.0 | 0.0 | 0.00 | 0.00 | 0.00 | 75 | 1016.8 | |
| 20260505123014 | 10 | 0.0 | 0.0 | 0.00 | 0.00 | 0.00 | 76 | 1017.1 | |
| 20260505121520 | 10 | 0.0 | 0.0 | 0.00 | 0.00 | 0.00 | 76 | 1017.0 | |
| 20260505120027 | 10 | 0.0 | 0.0 | 0.00 | 0.00 | 0.00 | 73 | 1017.1 | |
| 20260505114524 | 11 | 0.0 | 0.0 | 0.00 | 0.00 | 0.00 | 70 | 1017.0 | |
| 20260505113002 | 11 | 0.0 | 0.0 | 0.00 | 0.00 | 0.00 | 70 | 1017.1 | |
| 20260505111502 | 11 | 0.0 | 0.0 | 0.00 | 0.00 | 0.00 | 69 | 1017.1 | |
| 20260505101503 | 10 | 0.0 | 0.0 | 0.00 | 0.00 | 0.00 | 75 | 1017.4 | |
| 20260505100002 | 10 | 0.0 | 0.0 | 0.00 | 0.00 | 0.00 | 75 | 1017.5 | |
| 20260505094501 | 9 | 0.0 | 0.0 | 0.00 | 0.00 | 0.00 | 76 | 1017.4 | |
| 20260505093002 | 9 | 0.0 | 0.0 | 0.00 | 0.00 | 0.00 | 79 | 1017.4 | |
| 20260505091503 | 10 | 0.0 | 0.0 | 0.00 | 0.00 | 0.00 | 78 | 1017.4 | |
| 20260505090005 | 9 | 0.0 | 0.0 | 0.00 | 0.00 | 0.00 | 78 | 1017.3 | |
| 20260505084527 | 9 | 0.0 | 0.0 | 0.00 | 0.00 | 0.00 | 78 | 1017.4 | |
| 20260505083005 | 9 | 0.0 | 0.0 | 0.00 | 0.00 | 0.00 | 78 | 1017.4 | |
| 20260505081508 | 9 | 0.0 | 0.0 | 0.00 | 0.00 | 0.00 | 77 | 1017.4 | |
| 20260505080024 | 9 | 0.0 | 0.0 | 0.00 | 0.00 | 0.00 | 76 | 1017.3 | |
| 20260505074515 | 9 | 0.0 | 0.0 | 0.00 | 0.00 | 0.00 | 78 | 1017.3 | |
| 20260505073023 | 9 | 0.0 | 0.0 | 0.00 | 0.00 | 0.00 | 81 | 1017.3 | |
| 20260505071507 | 8 | 0.0 | 0.0 | 0.00 | 0.00 | 0.00 | 83 | 1017.3 | |
| 20260505070020 | 8 | 0.0 | 0.0 | 0.00 | 0.00 | 0.00 | 83 | 1017.2 | |
| 20260505064515 | 8 | 0.0 | 0.0 | 0.00 | 0.00 | 0.00 | 85 | 1017.3 | |
| 20260505063022 | 7 | 0.0 | 0.0 | 0.00 | 0.00 | 0.00 | 86 | 1017.4 | |
| 20260505061524 | 7 | 0.0 | 0.0 | 0.00 | 0.00 | 0.00 | 86 | 1017.3 | |
| 20260505060008 | 7 | 0.0 | 0.0 | 0.00 | 0.00 | 0.00 | 87 | 1017.2 | |
| 20260505054516 | 7 | 0.0 | 0.0 | 0.00 | 0.00 | 0.00 | 87 | 1017.1 | |
| 20260505053023 | 7 | 0.0 | 0.0 | 0.00 | 0.00 | 0.00 | 87 | 1017.1 | |
| 20260505051526 | 7 | 0.0 | 0.0 | 0.00 | 0.00 | 0.00 | 88 | 1017.2 | |
| 20260505041522 | 7 | 0.0 | 0.0 | 0.00 | 0.00 | 0.00 | 87 | 1017.0 | |
| 20260505040037 | 7 | 0.0 | 0.0 | 0.00 | 0.00 | 0.00 | 87 | 1017.1 | |
| 20260505034535 | 7 | 0.0 | 0.0 | 0.00 | 0.00 | 0.00 | 87 | 1017.1 | |
| 20260505033017 | 7 | 0.0 | 0.0 | 0.00 | 0.00 | 0.00 | 88 | 1017.1 | |
| 20260505031524 | 7 | 0.0 | 0.0 | 0.00 | 0.00 | 0.00 | 87 | 1017.3 | |
| 20260505030022 | 7 | 0.0 | 0.0 | 0.00 | 0.00 | 0.00 | 88 | 1017.2 | |
| 20260505024525 | 7 | 0.0 | 0.0 | 0.00 | 0.00 | 0.00 | 88 | 1017.2 | |
| 20260505023001 | 6 | 0.0 | 0.0 | 0.00 | 0.00 | 0.00 | 89 | 1017.2 | |
| 20260505021501 | 6 | 0.0 | 0.0 | 0.00 | 0.00 | 0.00 | 90 | 1017.2 | |
| 20260505020007 | 6 | 0.0 | 0.0 | 0.00 | 0.00 | 0.00 | 90 | 1017.3 | |
| 20260505014504 | 6 | 0.0 | 0.0 | 0.00 | 0.00 | 0.00 | 90 | 1017.4 | |
| 20260505013009 | 5 | 0.0 | 0.0 | 0.00 | 0.00 | 0.00 | 90 | 1017.5 | |
| 20260505011510 | 5 | 0.0 | 0.0 | 0.00 | 0.00 | 0.00 | 91 | 1017.5 | |
| 20260505010010 | 5 | 0.0 | 0.0 | 0.00 | 0.00 | 0.00 | 91 | 1017.6 | |
| 20260505004507 | 5 | 0.0 | 0.0 | 0.00 | 0.00 | 0.00 | 93 | 1017.6 | |
| 20260505003008 | 4 | 0.0 | 0.0 | 0.00 | 0.00 | 0.00 | 92 | 1017.6 | |
| 20260505001512 | 4 | 0.0 | 0.0 | 0.00 | 0.00 | 0.00 | 92 | 1017.7 | |
| 20260505000014 | 4 | 0.0 | 0.0 | 0.00 | 0.00 | 0.00 | 91 | 1017.8 | |
| 20260504234513 | 4 | 0.0 | 0.0 | 0.00 | 0.00 | 0.00 | 92 | 1017.8 | |
| 20260504233004 | 4 | 0.0 | 0.0 | 0.00 | 0.00 | 0.00 | 92 | 1017.9 | |
| 20260504231509 | 5 | 0.0 | 0.0 | 0.00 | 0.00 | 0.00 | 91 | 1017.9 | |
| 20260504230012 | 5 | 0.0 | 0.0 | 0.00 | 0.00 | 0.00 | 90 | 1017.8 | |
| 20260504224517 | 5 | 0.0 | 0.0 | 0.00 | 0.00 | 0.00 | 90 | 1018.0 | |
| 20260504223014 | 5 | 0.0 | 0.0 | 0.00 | 0.00 | 0.00 | 90 | 1017.9 | |
| 20260504221509 | 6 | 0.0 | 0.0 | 0.00 | 0.00 | 0.00 | 90 | 1018.0 | |
| 20260504220028 | 6 | 0.0 | 0.0 | 0.00 | 0.00 | 0.00 | 90 | 1018.0 | |
| 20260504214514 | 6 | 0.0 | 0.0 | 0.00 | 0.00 | 0.00 | 89 | 1018.0 | |
| 20260504213016 | 7 | 0.0 | 0.0 | 0.00 | 0.00 | 0.00 | 89 | 1017.9 | |
| 20260504211516 | 8 | 0.0 | 0.0 | 0.00 | 0.00 | 0.00 | 88 | 1017.8 | |
| 20260504210008 | 9 | 0.0 | 0.0 | 0.00 | 0.00 | 0.00 | 89 | 1017.9 | |
| 20260504204514 | 9 | 0.0 | 0.0 | 0.00 | 0.00 | 0.00 | 90 | 1017.9 | |
| 20260504203017 | 9 | 0.0 | 0.0 | 0.00 | 0.00 | 0.00 | 89 | 1017.9 | |
| 20260504201516 | 10 | 0.0 | 0.0 | 0.00 | 0.00 | 0.00 | 88 | 1017.8 |